Temp
17 17 18 20 20 21 21 21 21 21 22 23 24 24 24 24 25 25 22 30 32 32 30 27 26 27 25 27 28 29 26 27 27 27 28 27 26 27 27 25 27 26 24 24 22
16 17 16 18 20 20 21 21 21 21 21 22 24 24 24 23 21 19 32 31 31 32 30 27 26 26 26 28 29 28 28 28 28 28 27 27 27 27 26 26 25 24 24 23 22
15 16 16 16 18 20 21 21 21 21 22 22 24 24 23 22 19 25 31 31 29 30 32 31 31 28 29 30 30 28 29 30 30 29 29 28 28 27 26 25 25 23 23 23 22
14 15 16 16 17 18 19 20 21 22 22 23 23 23 21 20 25 30 30 30 30 28 29 30 30 29 29 30 30 31 30 30 30 30 29 28 27 26 26 26 26 24 24 23 22
15 15 16 17 17 18 18 19 21 23 22 23 22 21 18 20 22 31 30 30 29 27 28 28 28 28 30 30 31 31 31 30 30 28 29 28 28 27 27 26 26 25 24 23 23
12 15 15 17 18 18 18 19 21 23 23 22 19 19 17 22 29 29 29 28 28 27 28 29 29 29 31 31 32 33 31 29 28 28 29 27 27 27 26 26 25 24 24 23 23
11 13 15 16 17 17 19 21 21 22 22 21 18 15 16 23 30 29 29 28 28 29 26 30 31 31 31 32 32 32 29 29 29 29 28 29 28 27 26 26 25 24 24 24 24
12 13 14 15 17 18 19 22 23 22 19 18 16 14 18 28 28 29 29 29 29 29 31 31 31 31 32 32 31 31 29 29 30 29 28 29 27 26 26 26 25 25 25 24 24
10 12 14 16 16 17 20 23 22 18 17 17 15 16 20 27 27 30 29 29 29 29 30 31 30 29 31 29 28 29 28 29 30 29 29 28 27 26 26 25 25 25 25 25 24
9 11 13 15 17 18 21 22 19 16 15 15 15 19 23 28 29 30 30 30 30 27 29 30 26 26 24 26 26 28 29 29 28 29 28 27 26 25 26 25 25 25 25 25 24
10 12 12 15 16 18 20 19 17 18 17 22 23 23 25 27 29 29 30 28 30 28 27 27 27 25 26 28 29 29 29 30 30 30 28 26 26 25 26 26 25 25 25 25 25
10 12 12 15 16 17 17 16 18 19 17 19 21 22 25 27 27 28 30 28 28 27 27 27 26 26 28 29 29 29 28 29 30 30 30 27 27 26 26 26 26 25 25 25 25
10 11 12 16 16 15 14 16 18 19 17 21 21 22 23 24 25 27 28 27 27 26 27 25 28 28 29 28 29 29 29 28 31 29 28 27 27 25 26 26 26 26 26 26 25
10 11 10 15 15 14 14 18 19 18 18 22 24 25 25 24 24 28 29 29 28 26 26 26 29 29 28 29 28 28 29 30 29 28 27 28 26 24 26 25 26 26 26 26 26
9 12 9 7 11 10 20 19 19 18 21 26 27 28 25 26 28 27 29 28 27 28 27 27 29 28 29 29 29 30 29 29 28 27 27 27 26 26 25 25 26 27 27 27 27
9 13 8 10 10 18 18 20 18 20 21 25 27 28 27 27 27 29 29 30 28 28 28 27 29 29 29 31 31 30 28 26 23 23 25 26 27 26 23 27 28 28 28 27 27
10 14 12 6 12 18 18 17 19 19 24 26 27 26 27 26 27 29 27 27 26 25 25 28 29 31 31 31 31 28 26 25 26 24 24 24 25 29 27 28 30 28 28 28 28
11 15 16 15 16 15 16 17 19 22 23 24 26 25 28 26 27 28 27 26 26 26 23 25 27 29 30 29 28 28 26 24 27 25 27 24 25 29 31 30 29 28 29 28 28
11 14 12 16 15 14 14 16 19 20 24 26 25 26 25 26 28 27 26 25 26 25 26 23 25 28 30 31 30 28 27 27 24 23 25 24 26 29 30 29 27 28 27 28 28
7 7 11 15 14 14 14 17 19 22 25 25 25 25 26 25 25 26 26 27 28 27 26 26 27 27 30 31 30 29 27 28 22 25 26 25 27 27 29 28 27 27 27 28 28
7 9 14 13 14 13 15 16 20 21 23 25 24 24 25 25 25 25 26 27 29 30 25 25 25 27 28 28 30 28 27 24 23 23 24 25 24 24 28 28 28 26 28 28 27
5 11 13 13 14 11 14 16 20 23 24 25 24 24 23 24 24 24 25 27 28 27 27 24 25 26 26 29 29 29 27 26 28 25 22 24 26 28 27 28 26 27 28 26 26
5 5 14 14 13 14 14 18 21 22 23 23 23 23 24 23 24 23 25 27 28 27 26 25 23 26 26 27 28 29 26 24 22 22 22 26 26 27 25 26 24 25 25 24 24
6 7 9 10 10 14 13 16 19 22 22 22 22 23 23 23 22 23 25 28 28 29 26 27 22 26 28 28 27 28 28 25 26 23 23 24 29 30 27 26 24 24 24 23 24
7 6 8 9 12 11 13 14 18 19 21 22 21 21 21 20 22 22 24 26 27 26 25 24 26 25 30 27 28 29 28 25 26 27 28 29 26 28 27 26 25 25 24 23 23
8 8 7 7 9 11 13 15 16 18 18 19 20 22 21 20 22 24 24 25 27 24 25 22 25 23 29 28 28 30 29 27 27 27 27 28 27 26 28 26 25 24 24 24 23
7 7 7 9 9 11 12 14 15 15 17 19 20 18 19 21 20 22 22 23 21 24 21 22 23 22 27 26 26 27 29 28 28 27 27 27 28 26 26 26 26 24 24 26 25
Height
802 799 795 792 790 786 783 780 777 773 770 766 762 758 753 750 746 743 739 735 737 740 742 745 750 752 755 755 753 754 788 796 791 790 784 775 784 778 777 787 784 785 788 791 800
801 798 794 791 788 785 782 778 774 771 767 764 760 756 752 748 743 737 726 728 732 736 739 742 749 752 758 754 752 764 780 777 763 766 772 773 776 779 785 788 788 789 789 794 801
800 797 793 788 785 782 779 776 772 768 765 761 758 754 751 748 745 726 721 722 727 732 736 739 742 747 757 752 752 758 769 756 756 756 756 771 777 776 785 794 783 787 788 794 800
799 795 792 787 783 779 776 773 769 765 761 758 755 752 750 750 763 722 722 722 724 727 734 737 741 751 758 760 748 760 745 749 750 752 759 769 772 780 781 780 773 780 785 792 797
797 793 790 785 781 777 773 769 765 761 757 753 751 750 750 751 736 722 721 719 719 723 727 732 741 747 756 751 747 753 745 745 743 749 753 761 772 777 778 773 773 781 788 793 797
796 791 787 783 778 774 769 765 760 756 753 749 747 748 751 754 720 719 718 717 717 721 726 727 732 731 741 743 747 738 740 746 748 754 757 768 775 774 778 774 780 783 788 792 796
793 789 785 780 776 771 765 760 756 751 747 744 744 746 750 730 717 715 717 718 718 718 724 725 725 730 733 742 733 737 759 751 756 756 765 763 782 782 773 775 782 786 789 793 796
791 787 782 777 772 767 760 755 750 746 743 741 742 745 741 715 714 712 714 716 716 719 721 723 726 729 731 728 739 751 756 779 762 760 763 767 795 777 772 777 783 787 790 792 794
790 784 779 773 768 763 756 750 745 743 742 742 743 743 736 714 712 709 710 713 714 717 720 722 724 734 733 754 770 762 786 779 774 758 763 772 789 776 772 777 783 784 787 790 794
787 782 776 771 765 759 752 745 742 743 744 744 744 745 720 714 709 709 708 711 713 717 722 725 737 751 758 767 796 779 778 776 780 764 764 779 782 776 774 777 779 781 784 786 789
785 780 774 768 762 756 748 745 747 745 743 735 731 727 714 708 708 705 707 710 712 721 741 732 752 765 757 749 747 755 767 765 764 758 771 779 782 778 775 777 780 780 781 782 782
785 779 772 766 760 755 752 753 753 757 752 725 717 715 706 709 715 705 707 718 723 740 733 744 755 744 739 741 749 754 768 771 763 759 770 781 782 777 776 769 772 776 777 778 780
783 777 770 763 756 755 755 752 753 752 757 718 709 706 701 704 709 704 705 712 724 738 739 753 739 733 738 749 754 758 765 772 767 768 768 780 790 788 777 775 773 772 771 774 776
782 776 769 761 758 754 751 751 751 750 766 731 710 697 695 696 707 690 693 704 720 737 738 742 725 731 742 749 749 771 746 751 764 775 801 771 815 793 776 776 770 767 768 767 769
780 775 770 766 764 757 750 751 748 749 786 710 700 685 689 700 692 692 688 699 721 724 730 738 728 734 739 737 734 747 737 751 760 777 781 785 802 779 772 783 766 756 757 758 759
776 770 767 763 760 748 747 747 749 770 779 720 696 697 702 696 695 687 691 689 699 717 721 726 709 718 723 719 721 726 747 766 779 787 812 784 787 787 784 755 740 746 747 747 751
770 764 761 761 750 746 747 746 773 780 724 717 709 702 701 705 700 694 704 713 726 745 748 728 723 708 705 725 721 734 760 798 802 814 814 780 791 760 743 730 722 730 732 734 739
763 755 747 744 742 745 749 760 776 741 730 710 706 705 705 704 700 697 707 719 712 720 747 754 752 718 706 719 734 741 752 794 807 816 794 782 793 753 714 713 717 720 722 728 733
756 747 740 737 736 743 750 770 752 740 717 711 709 714 714 705 699 701 709 715 707 712 735 753 746 707 700 702 710 738 756 742 782 789 797 790 764 729 714 717 718 715 720 721 722
758 748 737 734 733 739 753 748 736 717 708 709 722 713 717 717 717 714 713 697 698 696 699 720 739 713 702 697 702 716 725 758 781 799 801 788 771 762 730 720 715 717 713 711 713
760 753 736 733 735 742 750 742 722 710 706 713 716 718 716 716 711 717 711 694 685 686 697 711 726 724 708 713 715 726 737 748 759 775 791 796 781 729 717 709 706 704 697 699 706
768 760 739 738 742 747 742 729 713 704 698 703 704 709 714 711 714 713 711 695 676 683 704 702 715 729 722 695 691 698 719 728 746 772 778 773 763 699 697 699 698 693 692 696 699
774 765 738 738 747 740 731 722 711 707 704 702 706 704 700 708 714 705 697 673 673 684 694 695 720 729 727 712 697 702 710 722 734 747 768 765 753 696 699 698 697 697 691 694 697
779 769 746 740 744 740 741 728 719 702 703 699 699 698 703 707 703 701 690 671 666 668 666 668 705 703 713 707 702 707 705 713 717 750 751 746 722 702 698 697 694 691 687 690 692
776 770 761 756 743 747 743 732 722 717 702 696 699 701 704 713 701 699 686 678 668 667 670 676 689 690 674 690 691 691 694 706 712 708 721 709 721 698 688 688 684 677 685 690 695
773 769 765 761 752 744 738 731 724 717 713 705 703 693 696 701 690 688 682 679 670 669 674 684 690 691 679 678 685 687 684 690 693 697 706 701 706 677 667 674 678 677 681 685 687
774 772 770 753 751 744 737 732 725 724 707 698 696 701 696 684 681 673 669 669 670 671 690 693 691 705 695 684 691 703 679 684 682 685 687 708 682 669 674 674 671 676 675 674 674
Wind_Speed
24 25 26 24 24 25 25 24 24 24 23 24 24 24 21 24 24 16 7 11 7 16 11 16 11 8 9 3 6 3 3 3 7 8 5 6 4 4 5 10 3 5 6 14 26
25 25 25 25 25 25 26 26 26 25 25 24 23 23 21 21 19 13 29 22 16 14 17 16 7 7 3 4 3 3 2 7 7 6 8 11 8 9 5 9 2 6 15 27 27
27 29 28 25 25 25 25 27 28 29 27 27 24 21 16 16 5 8 8 9 19 20 16 14 7 8 5 3 4 5 6 5 5 7 15 11 8 5 10 6 6 14 19 22 24
26 28 30 29 27 27 27 27 28 29 29 28 26 17 9 5 7 1 2 9 9 23 15 9 5 7 5 6 5 3 8 8 7 8 12 14 9 6 11 6 7 14 20 20 18
28 27 28 30 30 29 29 29 28 27 30 29 24 9 3 0 11 23 20 13 6 20 20 8 7 7 6 5 4 6 4 9 9 11 11 13 7 5 7 4 14 17 18 18 15
29 30 29 29 31 33 33 31 31 29 29 26 16 2 1 5 7 7 11 3 9 21 14 9 8 7 5 4 5 3 3 9 7 8 5 9 5 8 4 13 14 17 17 16 16
30 31 31 31 32 33 33 33 33 31 25 16 4 4 1 18 15 12 16 3 10 16 7 11 4 3 3 1 3 5 6 9 4 4 5 11 2 7 10 16 16 15 14 14 14
32 33 32 33 34 34 34 33 32 26 11 5 7 4 7 9 11 16 11 7 5 17 7 11 9 2 3 1 5 3 5 6 4 7 8 6 6 3 14 17 17 15 14 14 14
34 34 32 34 37 36 36 32 27 6 3 7 4 3 9 8 8 7 9 5 10 10 12 6 7 3 2 5 4 3 7 4 3 6 7 3 4 8 13 14 15 15 15 14 13
35 35 34 36 37 38 36 26 4 1 3 1 0 1 6 3 4 10 5 9 2 6 3 3 4 3 3 4 6 6 6 3 7 9 8 6 4 12 14 13 16 16 14 15 15
36 36 36 38 38 37 25 4 4 2 2 7 5 5 9 12 13 4 4 5 3 4 6 5 4 7 10 9 8 8 7 17 1 3 3 5 5 15 16 13 14 14 14 15 16
35 35 38 37 38 22 8 3 4 0 10 11 19 15 22 1 5 11 4 6 4 6 2 3 9 9 8 6 8 10 7 10 2 4 4 2 3 10 16 18 17 15 15 14 14
36 36 40 37 26 2 20 4 1 13 3 9 7 6 6 14 13 18 9 5 5 7 4 6 4 11 8 5 7 5 10 6 15 5 3 6 3 7 11 8 11 12 12 13 15
39 37 40 41 4 21 11 5 15 2 3 8 5 6 4 8 5 15 15 7 5 12 7 6 7 9 9 11 8 7 8 8 9 9 7 6 5 7 11 17 14 17 15 16 16
40 37 37 25 18 7 2 19 17 3 5 4 4 3 4 7 3 6 10 4 9 6 6 7 5 8 5 8 9 9 8 11 8 8 5 1 2 6 14 12 21 21 19 19 19
41 37 35 13 11 22 10 15 1 4 7 6 3 1 4 2 5 2 6 4 7 6 3 10 4 8 12 5 10 9 7 6 4 4 2 9 9 5 7 24 25 19 20 20 18
45 38 34 16 6 4 9 4 2 4 4 4 2 3 3 5 6 3 8 7 7 7 7 2 7 4 4 5 1 6 6 2 2 2 6 3 4 12 11 16 24 23 24 22 19
47 37 23 20 14 12 4 4 5 5 9 5 4 4 2 5 5 6 5 5 3 5 5 6 6 8 4 8 8 6 9 6 6 5 5 4 8 10 20 13 9 8 19 15 18
43 23 14 4 6 13 4 4 8 7 5 2 5 2 3 4 4 3 4 9 10 10 11 7 8 4 4 5 10 4 4 7 7 2 2 5 8 9 6 7 8 14 13 18 20
30 13 8 10 7 11 3 7 7 6 3 3 2 3 1 3 6 6 3 4 6 11 6 9 1 9 7 3 4 10 9 3 3 5 5 5 4 6 5 11 9 8 16 18 18
9 4 10 2 11 4 4 7 7 8 4 4 4 2 1 2 5 3 6 5 5 5 9 7 5 7 7 12 15 3 4 5 6 5 7 4 6 9 10 12 12 14 19 18 17
5 4 5 5 1 1 3 6 5 4 2 4 1 5 6 6 5 6 9 9 6 6 5 10 10 10 12 4 6 11 11 9 7 6 3 4 7 5 12 6 9 12 15 8 12
4 4 4 2 3 3 5 5 3 3 4 2 4 6 4 6 4 8 8 9 13 7 7 6 5 10 7 5 1 5 5 6 5 4 8 6 6 2 5 7 8 10 10 9 11
3 4 4 3 0 2 5 5 4 5 6 5 5 4 3 5 6 6 4 3 4 3 16 14 6 11 17 15 5 5 7 7 7 5 6 7 7 6 9 9 8 9 8 10 12
2 4 1 4 2 3 2 4 4 4 3 3 4 7 9 7 7 8 10 13 4 3 6 3 12 9 20 9 7 8 7 9 8 7 7 9 10 11 12 13 13 13 7 8 9
3 3 4 4 4 4 2 3 3 4 3 6 6 8 9 9 10 9 9 7 5 3 5 4 6 6 17 13 11 9 8 9 7 3 7 3 8 9 3 5 6 10 10 11 12
4 4 2 4 4 2 3 1 6 11 8 12 8 7 11 8 7 10 7 6 7 7 2 3 1 3 11 7 6 5 16 9 6 6 9 8 13 7 6 9 10 10 12 16 15
Wind_Direction
357 357 354 351 349 347 347 347 348 347 344 339 340 337 328 325 320 304 244 246 208 197 164 148 169 169 173 229 192 165 93 161 191 155 185 156 120 160 105 141 212 161 148 144 154
352 351 352 351 348 346 343 342 343 344 340 337 335 335 329 329 323 269 276 261 227 192 188 155 175 164 203 233 203 139 149 208 182 170 164 157 156 152 132 168 96 93 115 139 151
353 350 347 348 347 344 342 341 338 338 337 334 331 331 331 332 321 251 85 80 219 211 194 192 165 152 201 185 214 193 218 166 179 169 149 149 155 169 145 228 205 161 151 153 157
351 349 345 345 343 343 341 339 336 333 331 329 327 326 334 347 302 96 256 311 316 208 195 163 155 147 185 198 201 195 251 153 163 155 149 160 132 154 167 217 172 163 155 157 164
348 348 346 343 341 341 339 335 332 327 326 323 321 318 355 248 247 277 292 297 255 180 180 161 152 156 184 193 180 221 214 161 164 161 155 130 158 163 188 128 133 144 153 166 171
348 345 345 341 338 338 336 332 329 324 323 317 316 166 232 251 261 285 352 295 185 164 174 161 183 194 169 206 151 271 157 145 125 115 109 122 136 119 200 137 141 153 166 172 178
347 345 343 340 338 337 333 328 326 321 319 311 295 130 195 241 272 257 291 280 192 169 150 195 165 107 128 210 250 160 101 69 80 116 101 109 144 213 153 152 156 167 173 180 188
346 345 343 341 337 335 330 326 322 320 320 301 143 134 239 269 285 277 278 230 188 196 181 204 217 162 193 225 36 92 63 113 203 146 170 119 246 162 158 158 168 176 183 188 195
345 344 342 339 336 337 329 325 318 332 25 124 121 139 269 300 280 323 226 190 162 172 186 127 137 180 57 103 43 345 150 131 173 200 146 164 220 176 170 167 174 181 188 195 198
345 345 343 338 335 335 329 325 324 73 78 50 103 6 266 261 323 304 291 179 135 113 107 136 74 110 47 95 192 185 167 119 197 195 166 166 230 163 181 178 181 189 193 194 201
344 346 343 337 337 333 334 353 9 340 200 219 202 256 284 279 290 272 53 111 122 98 159 189 138 181 185 184 192 156 172 187 171 27 42 186 164 180 187 193 197 196 197 201 205
343 346 342 336 339 333 8 17 101 358 301 228 248 248 246 316 300 272 218 141 129 193 189 104 208 193 174 176 167 169 154 207 330 148 150 135 301 199 199 202 199 201 207 204 210
342 347 342 337 336 2 329 258 300 342 250 289 218 230 223 185 219 253 158 157 149 175 202 174 231 145 142 172 133 171 177 166 218 145 66 122 315 195 214 215 213 222 219 215 209
341 344 342 338 13 327 301 168 326 285 1 276 270 267 147 145 233 218 181 149 167 187 159 218 224 163 155 174 150 159 208 165 144 143 201 166 240 225 205 211 214 218 210 214 213
339 339 337 338 298 294 295 310 324 143 326 247 271 183 159 163 194 220 176 115 183 165 134 232 201 164 170 185 165 211 155 157 161 174 119 205 84 260 174 217 225 217 209 212 208
336 334 332 329 282 280 315 333 108 52 251 301 246 340 100 238 289 66 143 112 159 179 147 219 228 165 185 188 175 142 104 63 61 101 126 217 186 254 190 213 228 213 215 208 204
333 329 315 276 235 267 340 12 55 184 309 263 311 12 215 225 216 227 153 160 167 167 211 266 246 208 151 141 71 87 79 357 22 66 208 188 150 231 219 221 222 204 207 205 201
330 328 308 272 262 259 289 65 209 227 239 288 289 322 302 7 223 161 114 188 231 123 151 174 233 193 175 167 167 179 151 157 185 183 225 96 206 243 232 231 249 216 214 201 201
331 326 295 309 259 195 101 194 201 204 228 303 330 63 331 335 66 72 203 191 190 177 191 167 252 293 192 149 148 188 155 187 121 44 98 200 283 306 227 254 208 213 182 200 199
327 316 289 320 170 147 101 223 217 214 251 48 214 225 234 42 28 30 292 225 205 182 182 215 256 223 244 162 226 173 168 99 3 145 221 257 261 230 253 243 213 209 202 207 203
338 335 345 121 143 59 192 226 228 243 224 214 211 239 117 329 189 211 235 276 202 198 181 164 142 266 145 205 213 126 152 64 125 137 174 200 257 214 217 216 213 214 211 201 196
4 327 78 135 30 164 205 201 242 244 184 235 154 215 199 202 241 224 216 219 176 130 166 209 196 220 219 224 200 193 184 165 197 230 217 180 255 221 210 206 228 225 216 186 184
315 273 327 196 232 255 301 299 291 278 269 241 241 199 188 208 239 203 217 232 237 164 209 183 221 222 284 298 218 187 171 126 120 94 189 182 254 287 244 242 225 218 180 177 184
309 323 311 32 38 30 352 271 264 278 261 223 227 267 257 262 233 257 249 278 216 225 292 196 175 194 225 228 174 190 174 177 153 145 174 210 233 248 232 221 222 223 193 181 190
238 254 245 304 326 346 257 292 280 269 290 267 283 217 213 224 225 224 245 264 264 42 352 118 194 197 225 183 179 205 175 170 177 185 163 232 198 225 210 206 209 206 189 163 179
295 324 344 294 294 309 194 278 308 328 271 259 210 266 287 228 208 233 210 201 186 5 36 347 265 198 229 206 193 227 215 177 197 112 260 271 224 223 224 108 146 191 182 199 197
329 305 270 285 309 317 242 340 309 323 262 244 282 336 289 258 316 275 230 268 215 121 260 297 174 96 245 180 163 238 232 199 193 184 168 184 225 167 186 201 211 183 192 207 211